Hourly Data Report for June 17, 2021

VINELAND STATION RCS
ONTARIO
Current Station Operator: ECCC - MSC

43°11'00.000" N
79°24'00.000" W
79.20 m
6139148
71171
XVN

Download Data

Hourly Data (June 2021)
Hourly Data Report for June 17, 2021
TIME
LST
Temp Definition
°C
Dew Point Definition
°C
Rel Hum Definition
%
Precip. Amount Definition
mm

Wind Dir Definition
10's deg

Wind Spd Definition
km/h
Visibility Definition
km
Stn Press Definition
kPa
Hmdx Definition


Wind Chill Definition


Weather Definition


00:00 12.6 7.1 69 0.0 23 7   100.63     LegendNANA
01:00 11.3 6.0 70 0.0 23 4   100.60     LegendNANA
02:00 11.2 5.9 70 0.0 20 5   100.61     LegendNANA
03:00 9.9 5.4 74 0.0 22 7   100.62     LegendNANA
04:00 8.9 4.8 76 0.0 20 8   100.63     LegendNANA
05:00 9.0 4.4 73 0.0 20 9   100.66     LegendNANA
06:00 11.7 5.5 66 0.0 19 6   100.71     LegendNANA
07:00 15.7 7.1 57 0.0 20 6   100.72     LegendNANA
08:00 19.0 5.1 40 0.0 20 10   100.73     LegendNANA
09:00 20.3 4.4 35 0.0 21 13   100.73     LegendNANA
10:00 21.6 4.3 32 0.0 20 12   100.74     LegendNANA
11:00 22.1 3.3 29 0.0 24 14   100.72     LegendNANA
12:00 23.2 5.1 31 0.0 23 16   100.69     LegendNANA
13:00 23.2 3.4 27 0.0 19 15   100.66     LegendNANA
14:00 23.7 4.6 29 0.0 21 14   100.62     LegendNANA
15:00 24.0 3.5 26 0.0 21 17   100.57     LegendNANA
16:00 23.8 3.4 26 0.0 19 18   100.52     LegendNANA
17:00 23.4 4.9 30 0.0 19 19   100.46     LegendNANA
18:00 22.8 7.2 37 0.0 20 17   100.41     LegendNANA
19:00 21.2 6.7 39 0.0 20 19   100.39     LegendNANA
20:00 19.5 6.7 43 0.0 21 14   100.38     LegendNANA
21:00 18.7 7.1 47 0.0 20 16   100.39     LegendNANA
22:00 18.0 7.7 51 0.0 19 14   100.34     LegendNANA
23:00 18.0 8.6 54 0.0 20 13   100.35     LegendNANA

Notes on Data Quality.

Legend

  • E = Estimated
  • M = Missing
  • NA = Not Available*
  • [empty] = Indicates an unobserved value
Date modified: